NAA1365 MROC-KMIA

Flight info

Callsign NAA1365
Flight time 2h 20m
Altitude 34000
Route NANJO3R RADON UB767 PZA/N0455F360 UZ751 SELEK UL345 IKBIX SNDBR3
Aircraft A306/H-SDE3FGHIRWY/LB1

Departure

Time 2026-05-08 17:06
Airport Juan Santamaría International Airport (MROC)

Arrival

Time 2026-05-08 19:26
Airport Miami International Airport (KMIA)
Time Latitude Longitude Altitude Speed Heading
2026-05-08 16:32 9.99693 -84.20496 3040 ft 0 kts 339°
2026-05-08 16:54 9.99672 -84.20487 3041 ft 4 kts 334°
2026-05-08 16:55 9.99648 -84.20474 3040 ft 4 kts 324°
2026-05-08 16:55 9.99631 -84.20461 3040 ft 1 kts 324°
2026-05-08 16:55 9.99628 -84.20459 3039 ft 0 kts 324°
2026-05-08 16:57 9.99630 -84.20460 3040 ft 1 kts 325°
2026-05-08 16:58 9.99632 -84.20462 3040 ft 0 kts 325°
2026-05-08 16:59 9.99633 -84.20464 3041 ft 2 kts 309°
2026-05-08 16:59 9.99633 -84.20496 3041 ft 9 kts 258°
2026-05-08 16:59 9.99600 -84.20586 3042 ft 18 kts 249°
2026-05-08 16:59 9.99558 -84.20697 3041 ft 16 kts 249°
2026-05-08 17:00 9.99521 -84.20797 3019 ft 14 kts 249°
2026-05-08 17:00 9.99486 -84.20891 3013 ft 17 kts 249°
2026-05-08 17:00 9.99433 -84.21029 3000 ft 25 kts 249°
2026-05-08 17:00 9.99365 -84.21214 2986 ft 29 kts 250°
2026-05-08 17:01 9.99294 -84.21402 2970 ft 30 kts 249°
2026-05-08 17:01 9.99216 -84.21610 2957 ft 33 kts 249°
2026-05-08 17:01 9.99135 -84.21826 2947 ft 32 kts 249°
2026-05-08 17:01 9.99104 -84.22025 2930 ft 25 kts 278°
2026-05-08 17:02 9.99072 -84.22156 2922 ft 11 kts 245°
2026-05-08 17:02 9.99014 -84.22204 2919 ft 10 kts 189°
2026-05-08 17:02 9.98993 -84.22199 2923 ft 0 kts 155°
2026-05-08 17:03 9.98981 -84.22193 2925 ft 5 kts 154°
2026-05-08 17:03 9.98930 -84.22170 2922 ft 9 kts 146°
2026-05-08 17:03 9.98922 -84.22134 2925 ft 3 kts 77°
2026-05-08 17:03 9.98924 -84.22129 2925 ft 0 kts 70°
2026-05-08 17:04 9.98927 -84.22122 2926 ft 7 kts 70°
2026-05-08 17:05 9.98985 -84.21958 2967 ft 49 kts 69°
2026-05-08 17:05 9.99174 -84.21460 2992 ft 101 kts 70°
2026-05-08 17:05 9.99485 -84.20634 3039 ft 149 kts 70°
2026-05-08 17:05 9.99900 -84.19532 3352 ft 171 kts 72°
2026-05-08 17:06 10.00304 -84.18393 4232 ft 174 kts 69°
2026-05-08 17:06 10.01021 -84.17369 4770 ft 187 kts 39°
2026-05-08 17:06 10.02193 -84.16871 5419 ft 185 kts
2026-05-08 17:06 10.03510 -84.17012 5953 ft 195 kts 352°
2026-05-08 17:07 10.04834 -84.17281 6573 ft 194 kts 353°
2026-05-08 17:07 10.06205 -84.17564 7084 ft 208 kts 354°
2026-05-08 17:07 10.07684 -84.17791 7539 ft 220 kts 356°
2026-05-08 17:07 10.09223 -84.17972 8025 ft 229 kts 357°
2026-05-08 17:08 10.10801 -84.18150 8727 ft 227 kts 358°
2026-05-08 17:08 10.12348 -84.18276 9449 ft 221 kts
2026-05-08 17:08 10.13940 -84.18327 9766 ft 237 kts
2026-05-08 17:08 10.15601 -84.18269 10223 ft 239 kts 10°
2026-05-08 17:09 10.17257 -84.18003 10627 ft 245 kts 14°
2026-05-08 17:09 10.18942 -84.17598 10850 ft 254 kts 19°
2026-05-08 17:09 10.20676 -84.17089 11103 ft 266 kts 20°
2026-05-08 17:09 10.22507 -84.16540 11274 ft 280 kts 19°
2026-05-08 17:10 10.24423 -84.16019 11436 ft 291 kts 17°
2026-05-08 17:10 10.26429 -84.15536 11626 ft 301 kts 15°
2026-05-08 17:10 10.28510 -84.15090 11769 ft 310 kts 14°
2026-05-08 17:10 10.30652 -84.14661 11935 ft 318 kts 14°
2026-05-08 17:11 10.32846 -84.14235 12077 ft 325 kts 13°
2026-05-08 17:11 10.35095 -84.13801 12197 ft 332 kts 13°
2026-05-08 17:11 10.37392 -84.13351 12323 ft 339 kts 13°
2026-05-08 17:11 10.39726 -84.12894 12449 ft 345 kts 13°
2026-05-08 17:12 10.42102 -84.12428 12570 ft 350 kts 13°
2026-05-08 17:12 10.44517 -84.11951 12699 ft 356 kts 13°
2026-05-08 17:12 10.46962 -84.11467 12796 ft 360 kts 13°
2026-05-08 17:12 10.49438 -84.10977 12884 ft 364 kts 13°
2026-05-08 17:13 10.51940 -84.10480 12967 ft 368 kts 13°
2026-05-08 17:13 10.54437 -84.09986 13052 ft 372 kts 13°
2026-05-08 17:13 10.56990 -84.09482 13127 ft 375 kts 13°
2026-05-08 17:13 10.59557 -84.08979 13188 ft 378 kts 13°
2026-05-08 17:14 10.62154 -84.08465 13241 ft 380 kts 13°
2026-05-08 17:14 10.64757 -84.07950 13307 ft 382 kts 13°
2026-05-08 17:14 10.67376 -84.07431 13412 ft 383 kts 13°
2026-05-08 17:14 10.69994 -84.06908 13507 ft 384 kts 13°
2026-05-08 17:15 10.72620 -84.06350 13639 ft 384 kts 14°
2026-05-08 17:15 10.75232 -84.05767 13727 ft 385 kts 15°
2026-05-08 17:15 10.77847 -84.05164 13823 ft 386 kts 15°
2026-05-08 17:15 10.80464 -84.04554 13912 ft 386 kts 15°
2026-05-08 17:16 10.83085 -84.03944 14017 ft 387 kts 15°
2026-05-08 17:16 10.85712 -84.03335 14107 ft 387 kts 15°
2026-05-08 17:16 10.88345 -84.02731 14191 ft 388 kts 14°
2026-05-08 17:16 10.90983 -84.02128 14278 ft 389 kts 14°
2026-05-08 17:17 10.93623 -84.01525 14376 ft 390 kts 14°
2026-05-08 17:17 10.96270 -84.00920 14470 ft 390 kts 14°
2026-05-08 17:17 10.98917 -84.00315 14547 ft 391 kts 14°
2026-05-08 17:17 11.01576 -83.99709 14647 ft 391 kts 14°
2026-05-08 17:18 11.04201 -83.99109 14726 ft 392 kts 14°
2026-05-08 17:18 11.06864 -83.98500 14803 ft 393 kts 14°
2026-05-08 17:18 11.09532 -83.97890 14905 ft 393 kts 14°
2026-05-08 17:18 11.12201 -83.97280 14995 ft 393 kts 14°
2026-05-08 17:19 11.14870 -83.96669 15085 ft 394 kts 14°
2026-05-08 17:19 11.17550 -83.96054 15164 ft 395 kts 14°
2026-05-08 17:19 11.20231 -83.95440 15256 ft 395 kts 14°
2026-05-08 17:19 11.22914 -83.94827 15336 ft 396 kts 14°
2026-05-08 17:20 11.25606 -83.94211 15416 ft 396 kts 14°
2026-05-08 17:20 11.28297 -83.93596 15497 ft 397 kts 14°
2026-05-08 17:20 11.30994 -83.92979 15576 ft 398 kts 14°
2026-05-08 17:20 11.33699 -83.92360 15671 ft 398 kts 14°
2026-05-08 17:21 11.36396 -83.91743 15751 ft 399 kts 14°
2026-05-08 17:21 11.39111 -83.91120 15820 ft 399 kts 14°
2026-05-08 17:21 11.41822 -83.90497 15901 ft 400 kts 14°
2026-05-08 17:21 11.44537 -83.89876 15970 ft 401 kts 14°
2026-05-08 17:22 11.47261 -83.89252 16052 ft 401 kts 14°
2026-05-08 17:22 11.49985 -83.88628 16117 ft 402 kts 14°
2026-05-08 17:22 11.52716 -83.88003 16192 ft 402 kts 14°
2026-05-08 17:22 11.55450 -83.87375 16284 ft 403 kts 14°
2026-05-08 17:23 11.58173 -83.86751 16498 ft 400 kts 14°
2026-05-08 17:23 11.60874 -83.86133 16734 ft 396 kts 14°
2026-05-08 17:23 11.63572 -83.85513 16993 ft 401 kts 14°
2026-05-08 17:23 11.66328 -83.84878 17248 ft 409 kts 14°
2026-05-08 17:24 11.69120 -83.84281 17697 ft 413 kts 12°
2026-05-08 17:24 11.71913 -83.83742 18180 ft 415 kts 11°
2026-05-08 17:24 11.74772 -83.83212 18586 ft 418 kts 11°
2026-05-08 17:24 11.77639 -83.82686 18979 ft 421 kts 12°
2026-05-08 17:25 11.80531 -83.82152 19352 ft 423 kts 12°
2026-05-08 17:25 11.83435 -83.81607 19722 ft 426 kts 12°
2026-05-08 17:25 11.86363 -83.81051 20082 ft 428 kts 12°
2026-05-08 17:25 11.89297 -83.80490 20436 ft 431 kts 12°
2026-05-08 17:26 11.92253 -83.79921 20783 ft 433 kts 13°
2026-05-08 17:26 11.95223 -83.79349 21129 ft 435 kts 13°
2026-05-08 17:26 11.98206 -83.78774 21468 ft 437 kts 13°
2026-05-08 17:26 12.01203 -83.78198 21814 ft 439 kts 13°
2026-05-08 17:27 12.04215 -83.77619 22135 ft 441 kts 13°
2026-05-08 17:27 12.07237 -83.77038 22464 ft 443 kts 13°
2026-05-08 17:27 12.10278 -83.76455 22771 ft 446 kts 13°
2026-05-08 17:27 12.13333 -83.75869 23077 ft 448 kts 13°
2026-05-08 17:28 12.16400 -83.75280 23357 ft 450 kts 13°
2026-05-08 17:28 12.19483 -83.74687 23615 ft 452 kts 13°
2026-05-08 17:28 12.22576 -83.74092 23847 ft 454 kts 13°
2026-05-08 17:28 12.25691 -83.73493 24092 ft 455 kts 13°
2026-05-08 17:29 12.28803 -83.72895 24335 ft 457 kts 13°
2026-05-08 17:29 12.31935 -83.72292 24585 ft 458 kts 13°
2026-05-08 17:29 12.35078 -83.71687 24828 ft 459 kts 13°
2026-05-08 17:29 12.38224 -83.71082 25060 ft 461 kts 13°
2026-05-08 17:30 12.41377 -83.70474 25295 ft 462 kts 13°
2026-05-08 17:30 12.44546 -83.69864 25522 ft 464 kts 13°
2026-05-08 17:30 12.47723 -83.69252 25765 ft 465 kts 13°
2026-05-08 17:30 12.50910 -83.68637 25987 ft 467 kts 13°
2026-05-08 17:31 12.54103 -83.68021 26216 ft 468 kts 13°
2026-05-08 17:31 12.57309 -83.67403 26426 ft 469 kts 13°
2026-05-08 17:31 12.60480 -83.66791 26653 ft 471 kts 13°
2026-05-08 17:31 12.63700 -83.66170 26872 ft 472 kts 13°
2026-05-08 17:32 12.66929 -83.65547 27090 ft 473 kts 12°
2026-05-08 17:32 12.70167 -83.64923 27294 ft 475 kts 12°
2026-05-08 17:32 12.73464 -83.64287 27496 ft 476 kts 12°
2026-05-08 17:32 12.76724 -83.63657 27698 ft 477 kts 12°
2026-05-08 17:33 12.79990 -83.63025 27891 ft 479 kts 12°
2026-05-08 17:33 12.83221 -83.62400 28087 ft 480 kts 12°
2026-05-08 17:33 12.86503 -83.61766 28376 ft 479 kts 12°
2026-05-08 17:33 12.89773 -83.61134 28677 ft 477 kts 12°
2026-05-08 17:34 12.93028 -83.60504 28968 ft 477 kts 12°
2026-05-08 17:34 12.96290 -83.59872 29275 ft 476 kts 12°
2026-05-08 17:34 12.99536 -83.59243 29599 ft 475 kts 12°
2026-05-08 17:34 13.02776 -83.58615 29923 ft 474 kts 12°
2026-05-08 17:35 13.06015 -83.57987 30209 ft 473 kts 12°
2026-05-08 17:35 13.09243 -83.57363 30475 ft 472 kts 12°
2026-05-08 17:35 13.12467 -83.56738 30745 ft 471 kts 12°
2026-05-08 17:35 13.15686 -83.56115 31020 ft 470 kts 12°
2026-05-08 17:36 13.17817 -83.55702 31203 ft 469 kts 12°
2026-05-08 17:36 13.21020 -83.55081 31478 ft 468 kts 12°
2026-05-08 17:36 13.24221 -83.54460 31747 ft 468 kts 12°
2026-05-08 17:36 13.27416 -83.53841 32030 ft 467 kts 11°
2026-05-08 17:37 13.30605 -83.53222 32292 ft 466 kts 11°
2026-05-08 17:37 13.33785 -83.52605 32567 ft 465 kts 11°
2026-05-08 17:37 13.36969 -83.51987 32838 ft 465 kts 11°
2026-05-08 17:37 13.40142 -83.51370 33116 ft 464 kts 11°
2026-05-08 17:38 13.43308 -83.50755 33381 ft 463 kts 11°
2026-05-08 17:38 13.46473 -83.50140 33652 ft 463 kts 11°
2026-05-08 17:38 13.49635 -83.49526 33917 ft 462 kts 11°
2026-05-08 17:38 13.52794 -83.48912 34146 ft 461 kts 11°
2026-05-08 17:39 13.55950 -83.48298 34367 ft 461 kts 11°
2026-05-08 17:39 13.59104 -83.47684 34593 ft 461 kts 11°
2026-05-08 17:39 13.62254 -83.47071 34807 ft 460 kts 11°
2026-05-08 17:39 13.65401 -83.46459 35034 ft 460 kts 11°
2026-05-08 17:40 13.68550 -83.45846 35267 ft 459 kts 11°
2026-05-08 17:40 13.71688 -83.45234 35500 ft 459 kts 11°
2026-05-08 17:40 13.74817 -83.44625 35725 ft 458 kts 11°
2026-05-08 17:40 13.77953 -83.44014 35896 ft 458 kts 11°
2026-05-08 17:41 13.84129 -83.42810 35927 ft 450 kts 11°
2026-05-08 17:41 13.90263 -83.41615 35938 ft 448 kts 11°
2026-05-08 17:42 13.96399 -83.40418 35938 ft 448 kts 11°
2026-05-08 17:42 14.02523 -83.39222 35941 ft 448 kts 11°
2026-05-08 17:43 14.08671 -83.38127 35939 ft 448 kts
2026-05-08 17:43 14.14843 -83.37179 35940 ft 448 kts
2026-05-08 17:44 14.21015 -83.36245 35936 ft 448 kts
2026-05-08 17:44 14.27184 -83.35293 35929 ft 448 kts
2026-05-08 17:45 14.33356 -83.34330 35928 ft 448 kts
2026-05-08 17:45 14.39524 -83.33364 35925 ft 448 kts
2026-05-08 17:46 14.45684 -83.32400 35932 ft 448 kts
2026-05-08 17:46 14.51854 -83.31434 35930 ft 448 kts
2026-05-08 17:47 14.58020 -83.30468 35934 ft 448 kts
2026-05-08 17:47 14.63144 -83.29663 35935 ft 448 kts
2026-05-08 17:48 14.70310 -83.28540 35938 ft 448 kts
2026-05-08 17:48 14.76481 -83.27573 35938 ft 448 kts
2026-05-08 17:49 14.82652 -83.26604 35942 ft 448 kts
2026-05-08 17:49 14.88820 -83.25635 35947 ft 448 kts
2026-05-08 17:50 14.94988 -83.24665 35949 ft 448 kts
2026-05-08 17:50 15.01158 -83.23695 35948 ft 448 kts
2026-05-08 17:51 15.07329 -83.22724 35952 ft 448 kts
2026-05-08 17:51 15.13503 -83.21752 35954 ft 448 kts
2026-05-08 17:52 15.19670 -83.20780 35957 ft 448 kts
2026-05-08 17:53 15.28922 -83.19322 35960 ft 448 kts
2026-05-08 17:53 15.35086 -83.18349 35961 ft 448 kts
2026-05-08 17:54 15.41259 -83.17375 35963 ft 448 kts
2026-05-08 17:54 15.47389 -83.16405 35960 ft 448 kts
2026-05-08 17:55 15.53552 -83.15431 35961 ft 448 kts
2026-05-08 17:55 15.59717 -83.14457 35958 ft 448 kts
2026-05-08 17:56 15.65882 -83.13481 35958 ft 448 kts
2026-05-08 17:56 15.72040 -83.12505 35962 ft 448 kts
2026-05-08 17:57 15.78207 -83.11528 35965 ft 448 kts
2026-05-08 17:57 15.84374 -83.10551 35962 ft 448 kts
2026-05-08 17:58 15.90533 -83.09574 35964 ft 448 kts
2026-05-08 17:58 15.96703 -83.08594 35963 ft 448 kts
2026-05-08 17:59 16.02865 -83.07616 35958 ft 448 kts
2026-05-08 17:59 16.09029 -83.06636 35961 ft 448 kts
2026-05-08 18:00 16.15151 -83.05661 35964 ft 448 kts
2026-05-08 18:00 16.24388 -83.04191 35964 ft 448 kts
2026-05-08 18:01 16.30550 -83.03210 35965 ft 448 kts
2026-05-08 18:01 16.36708 -83.02228 35966 ft 448 kts
2026-05-08 18:02 16.41835 -83.01411 35965 ft 448 kts
2026-05-08 18:02 16.49039 -83.00260 35965 ft 448 kts
2026-05-08 18:03 16.55202 -82.99276 35961 ft 448 kts
2026-05-08 18:03 16.61363 -82.98292 35963 ft 448 kts
2026-05-08 18:04 16.67527 -82.97306 35967 ft 448 kts
2026-05-08 18:04 16.73643 -82.96327 35967 ft 448 kts
2026-05-08 18:05 16.79799 -82.95342 35966 ft 447 kts
2026-05-08 18:05 16.85947 -82.94357 35964 ft 447 kts
2026-05-08 18:06 16.92103 -82.93371 35962 ft 447 kts
2026-05-08 18:06 16.98258 -82.92383 35964 ft 447 kts
2026-05-08 18:07 17.04412 -82.91394 35970 ft 447 kts
2026-05-08 18:07 17.10561 -82.90407 35967 ft 447 kts
2026-05-08 18:08 17.16709 -82.89418 35969 ft 447 kts
2026-05-08 18:08 17.22850 -82.88430 35971 ft 447 kts
2026-05-08 18:09 17.28996 -82.87440 35969 ft 447 kts
2026-05-08 18:09 17.35112 -82.86455 35968 ft 447 kts
2026-05-08 18:10 17.41258 -82.85465 35968 ft 447 kts
2026-05-08 18:10 17.47398 -82.84475 35971 ft 447 kts
2026-05-08 18:11 17.53546 -82.83482 35972 ft 447 kts
2026-05-08 18:11 17.59687 -82.82489 35975 ft 446 kts
2026-05-08 18:12 17.65827 -82.81497 35972 ft 447 kts
2026-05-08 18:12 17.71973 -82.80503 35972 ft 447 kts
2026-05-08 18:13 17.78115 -82.79508 35977 ft 447 kts
2026-05-08 18:13 17.84266 -82.78512 35974 ft 447 kts
2026-05-08 18:14 17.90415 -82.77516 35975 ft 447 kts
2026-05-08 18:14 17.96555 -82.76520 35978 ft 447 kts
2026-05-08 18:15 18.02711 -82.75522 35978 ft 447 kts
2026-05-08 18:15 18.08859 -82.74523 35979 ft 447 kts
2026-05-08 18:16 18.15010 -82.73523 35972 ft 447 kts
2026-05-08 18:16 18.21168 -82.72521 35978 ft 447 kts
2026-05-08 18:17 18.27280 -82.71526 35975 ft 448 kts
2026-05-08 18:17 18.33433 -82.70524 35975 ft 448 kts
2026-05-08 18:18 18.39594 -82.69519 35978 ft 448 kts
2026-05-08 18:18 18.45756 -82.68514 35980 ft 448 kts
2026-05-08 18:19 18.51918 -82.67509 35977 ft 448 kts
2026-05-08 18:19 18.58080 -82.66502 35978 ft 448 kts
2026-05-08 18:20 18.64244 -82.65494 35983 ft 448 kts
2026-05-08 18:20 18.70369 -82.64492 35982 ft 448 kts
2026-05-08 18:21 18.76534 -82.63482 35984 ft 448 kts
2026-05-08 18:21 18.82699 -82.62472 35983 ft 448 kts
2026-05-08 18:22 18.88863 -82.61461 35987 ft 448 kts
2026-05-08 18:22 18.95027 -82.60451 35984 ft 448 kts
2026-05-08 18:23 19.01193 -82.59437 35984 ft 448 kts
2026-05-08 18:23 19.07357 -82.58424 35987 ft 448 kts
2026-05-08 18:24 19.13533 -82.57409 35991 ft 449 kts
2026-05-08 18:24 19.19705 -82.56393 35987 ft 449 kts
2026-05-08 18:25 19.25842 -82.55383 35991 ft 449 kts
2026-05-08 18:25 19.32011 -82.54366 35989 ft 449 kts
2026-05-08 18:26 19.38190 -82.53347 35990 ft 449 kts
2026-05-08 18:26 19.43366 -82.52492 35990 ft 449 kts
2026-05-08 18:27 19.48507 -82.51643 35989 ft 450 kts
2026-05-08 18:27 19.55730 -82.50449 35993 ft 450 kts
2026-05-08 18:28 19.61919 -82.49425 35993 ft 450 kts
2026-05-08 18:28 19.68101 -82.48401 35995 ft 450 kts
2026-05-08 18:29 19.74250 -82.47382 35993 ft 450 kts
2026-05-08 18:29 19.80436 -82.46356 35995 ft 450 kts
2026-05-08 18:30 19.86624 -82.45329 35995 ft 450 kts
2026-05-08 18:30 19.92819 -82.44301 35996 ft 450 kts
2026-05-08 18:31 19.99018 -82.43270 35996 ft 450 kts
2026-05-08 18:31 20.05254 -82.42234 35999 ft 458 kts
2026-05-08 18:32 20.11551 -82.40869 35999 ft 465 kts 13°
2026-05-08 18:32 20.17794 -82.39051 35997 ft 466 kts 14°
2026-05-08 18:33 20.24026 -82.37154 36000 ft 466 kts 14°
2026-05-08 18:33 20.30261 -82.35250 36000 ft 466 kts 14°
2026-05-08 18:34 20.36501 -82.33353 36000 ft 466 kts 14°
2026-05-08 18:34 20.42740 -82.31461 35999 ft 466 kts 14°
2026-05-08 18:35 20.48980 -82.29572 35999 ft 466 kts 14°
2026-05-08 18:35 20.55191 -82.27712 35999 ft 466 kts 14°
2026-05-08 18:36 20.61483 -82.25833 35996 ft 467 kts 14°
2026-05-08 18:36 20.67696 -82.23974 36001 ft 467 kts 14°
2026-05-08 18:37 20.73949 -82.22100 36000 ft 467 kts 14°
2026-05-08 18:37 20.80204 -82.20223 36003 ft 467 kts 14°
2026-05-08 18:38 20.86465 -82.18343 35998 ft 467 kts 13°
2026-05-08 18:38 20.92724 -82.16461 36002 ft 467 kts 13°
2026-05-08 18:39 20.98981 -82.14579 36000 ft 467 kts 13°
2026-05-08 18:39 21.05242 -82.12694 36002 ft 468 kts 13°
2026-05-08 18:40 21.11512 -82.10804 36001 ft 468 kts 13°
2026-05-08 18:40 21.17772 -82.08916 36004 ft 468 kts 13°
2026-05-08 18:41 21.24028 -82.07027 36000 ft 468 kts 13°
2026-05-08 18:41 21.30311 -82.05129 35997 ft 468 kts 13°
2026-05-08 18:42 21.36578 -82.03234 35999 ft 468 kts 13°
2026-05-08 18:42 21.42807 -82.01348 36001 ft 468 kts 13°
2026-05-08 18:43 21.49080 -81.99448 35997 ft 468 kts 13°
2026-05-08 18:43 21.55356 -81.97545 35997 ft 469 kts 13°
2026-05-08 18:44 21.61640 -81.95637 36000 ft 469 kts 13°
2026-05-08 18:44 21.67910 -81.93733 36000 ft 469 kts 13°
2026-05-08 18:45 21.74197 -81.91821 36000 ft 469 kts 13°
2026-05-08 18:45 21.80479 -81.89909 36001 ft 469 kts 13°
2026-05-08 18:46 21.86762 -81.87995 35998 ft 469 kts 13°
2026-05-08 18:46 21.93047 -81.86079 35997 ft 469 kts 13°
2026-05-08 18:47 21.99327 -81.84163 35996 ft 469 kts 13°
2026-05-08 18:47 22.05576 -81.82254 35995 ft 470 kts 13°
2026-05-08 18:48 22.11869 -81.80330 35998 ft 470 kts 13°
2026-05-08 18:48 22.18162 -81.78405 35995 ft 470 kts 13°
2026-05-08 18:49 22.24449 -81.76479 35995 ft 470 kts 13°
2026-05-08 18:49 22.30746 -81.74548 35991 ft 470 kts 13°
2026-05-08 18:50 22.37037 -81.72619 35989 ft 470 kts 13°
2026-05-08 18:50 22.43337 -81.70724 35989 ft 470 kts 12°
2026-05-08 18:51 22.49648 -81.68844 35985 ft 471 kts 12°
2026-05-08 18:51 22.55945 -81.66964 35985 ft 471 kts 12°
2026-05-08 18:52 22.62257 -81.65074 35984 ft 471 kts 12°
2026-05-08 18:52 22.68578 -81.63177 35982 ft 471 kts 12°
2026-05-08 18:53 22.74896 -81.61282 35989 ft 471 kts 12°
2026-05-08 18:53 22.81218 -81.59383 35996 ft 471 kts 12°
2026-05-08 18:54 22.87539 -81.57481 36007 ft 472 kts 12°
2026-05-08 18:54 22.93810 -81.55592 36015 ft 472 kts 12°
2026-05-08 18:55 23.03305 -81.52731 36023 ft 472 kts 12°
2026-05-08 18:56 23.09631 -81.50822 36023 ft 472 kts 12°
2026-05-08 18:56 23.15964 -81.48909 36016 ft 472 kts 12°
2026-05-08 18:57 23.22294 -81.46995 36016 ft 472 kts 12°
2026-05-08 18:57 23.28626 -81.45078 36011 ft 472 kts 12°
2026-05-08 18:58 23.34960 -81.43158 36010 ft 472 kts 12°
2026-05-08 18:58 23.41293 -81.41237 36008 ft 473 kts 12°
2026-05-08 18:59 23.47631 -81.39312 36007 ft 473 kts 12°
2026-05-08 18:59 23.53976 -81.37384 36005 ft 473 kts 12°
2026-05-08 19:00 23.59241 -81.35782 36003 ft 473 kts 12°
2026-05-08 19:00 23.66608 -81.33538 36010 ft 473 kts 12°
2026-05-08 19:01 23.72949 -81.31605 35976 ft 471 kts 12°
2026-05-08 19:01 23.76096 -81.30644 35451 ft 469 kts 12°
2026-05-08 19:01 23.79243 -81.29683 34845 ft 470 kts 12°
2026-05-08 19:01 23.82396 -81.28721 34332 ft 473 kts 12°
2026-05-08 19:02 23.85576 -81.27752 33787 ft 476 kts 12°
2026-05-08 19:02 23.88784 -81.26773 33213 ft 479 kts 12°
2026-05-08 19:02 23.91997 -81.25791 32656 ft 481 kts 12°
2026-05-08 19:02 23.95230 -81.24802 32107 ft 483 kts 12°
2026-05-08 19:03 23.98475 -81.23808 31566 ft 485 kts 12°
2026-05-08 19:03 24.01736 -81.22864 31030 ft 487 kts 10°
2026-05-08 19:03 24.05037 -81.21982 30505 ft 489 kts 10°
2026-05-08 19:03 24.08337 -81.21109 29974 ft 491 kts 10°
2026-05-08 19:04 24.11672 -81.20226 29369 ft 493 kts 10°
2026-05-08 19:04 24.15011 -81.19339 28776 ft 495 kts 10°
2026-05-08 19:04 24.18358 -81.18448 28194 ft 496 kts 10°
2026-05-08 19:04 24.21718 -81.17553 27621 ft 497 kts 10°
2026-05-08 19:05 24.25041 -81.16666 27075 ft 499 kts 10°
2026-05-08 19:05 24.28420 -81.15764 26522 ft 500 kts 10°
2026-05-08 19:05 24.31800 -81.14861 26010 ft 499 kts 10°
2026-05-08 19:05 24.35169 -81.13960 25490 ft 496 kts 11°
2026-05-08 19:06 24.38480 -81.13073 24970 ft 492 kts 11°
2026-05-08 19:06 24.41796 -81.12185 24469 ft 489 kts 11°
2026-05-08 19:06 24.45092 -81.11303 23974 ft 486 kts 11°
2026-05-08 19:06 24.48364 -81.10426 23461 ft 482 kts 11°
2026-05-08 19:07 24.51452 -81.09599 22922 ft 479 kts 11°
2026-05-08 19:07 24.54677 -81.08734 22337 ft 474 kts 11°
2026-05-08 19:07 24.57837 -81.07886 21796 ft 470 kts 11°
2026-05-08 19:07 24.60913 -81.07061 21251 ft 466 kts 11°
2026-05-08 19:08 24.63885 -81.06263 20772 ft 461 kts 11°
2026-05-08 19:08 24.66948 -81.05440 20233 ft 458 kts 12°
2026-05-08 19:08 24.70070 -81.04601 19726 ft 454 kts 12°
2026-05-08 19:08 24.73126 -81.03779 19206 ft 450 kts 12°
2026-05-08 19:09 24.76159 -81.02963 18709 ft 446 kts 12°
2026-05-08 19:09 24.79165 -81.02154 18197 ft 443 kts 12°
2026-05-08 19:09 24.82146 -81.01350 17622 ft 440 kts 12°
2026-05-08 19:09 24.85108 -81.00552 17049 ft 437 kts 13°
2026-05-08 19:10 24.88061 -80.99756 16478 ft 434 kts 13°
2026-05-08 19:10 24.90982 -80.98967 15950 ft 431 kts 13°
2026-05-08 19:10 24.93880 -80.98185 15424 ft 428 kts 13°
2026-05-08 19:10 24.96731 -80.97415 14909 ft 426 kts 13°
2026-05-08 19:11 24.99597 -80.96641 14408 ft 423 kts 13°
2026-05-08 19:11 25.02447 -80.95870 13913 ft 420 kts 13°
2026-05-08 19:11 25.05279 -80.95105 13368 ft 418 kts 13°
2026-05-08 19:11 25.08094 -80.94344 12823 ft 416 kts 13°
2026-05-08 19:12 25.10893 -80.93586 12300 ft 413 kts 14°
2026-05-08 19:12 25.13674 -80.92833 11758 ft 411 kts 14°
2026-05-08 19:12 25.16440 -80.92089 11220 ft 409 kts 14°
2026-05-08 19:12 25.19196 -80.91342 10685 ft 406 kts 14°
2026-05-08 19:13 25.21934 -80.90601 10151 ft 404 kts 14°
2026-05-08 19:13 25.24652 -80.89863 9601 ft 401 kts 14°
2026-05-08 19:13 25.27339 -80.89132 9153 ft 396 kts 14°
2026-05-08 19:13 25.29999 -80.88409 8791 ft 391 kts 14°
2026-05-08 19:14 25.32452 -80.87742 8387 ft 387 kts 14°
2026-05-08 19:14 25.35088 -80.87027 7951 ft 384 kts 14°
2026-05-08 19:14 25.37633 -80.86326 7518 ft 380 kts 15°
2026-05-08 19:14 25.40132 -80.85417 7112 ft 376 kts 21°
2026-05-08 19:15 25.42538 -80.84322 6794 ft 371 kts 23°
2026-05-08 19:15 25.44913 -80.83231 6412 ft 368 kts 21°
2026-05-08 19:15 25.47308 -80.82276 5979 ft 364 kts 19°
2026-05-08 19:15 25.49702 -80.81365 5523 ft 362 kts 19°
2026-05-08 19:16 25.52084 -80.80467 5078 ft 361 kts 19°
2026-05-08 19:16 25.54445 -80.79580 4638 ft 359 kts 19°
2026-05-08 19:16 25.56800 -80.78692 4169 ft 356 kts 19°
2026-05-08 19:16 25.59144 -80.77810 3723 ft 355 kts 19°
2026-05-08 19:17 25.60685 -80.77229 3428 ft 353 kts 19°
2026-05-08 19:17 25.63007 -80.76344 3001 ft 351 kts 20°
2026-05-08 19:17 25.65090 -80.75065 2451 ft 334 kts 41°
2026-05-08 19:17 25.66540 -80.73205 2091 ft 304 kts 53°
2026-05-08 19:18 25.67717 -80.71415 1998 ft 271 kts 54°
2026-05-08 19:18 25.68772 -80.69822 1985 ft 242 kts 53°
2026-05-08 19:18 25.69742 -80.68357 2001 ft 233 kts 53°
2026-05-08 19:18 25.69998 -80.67974 2004 ft 232 kts 53°
2026-05-08 19:19 25.70839 -80.66725 2023 ft 231 kts 53°
2026-05-08 19:19 25.71795 -80.65317 2037 ft 229 kts 53°
2026-05-08 19:19 25.72648 -80.64075 2008 ft 225 kts 53°
2026-05-08 19:19 25.73574 -80.62723 1998 ft 212 kts 53°
2026-05-08 19:20 25.74452 -80.61420 2004 ft 210 kts 54°
2026-05-08 19:20 25.75030 -80.60563 2007 ft 209 kts 53°
2026-05-08 19:20 25.76202 -80.58844 2008 ft 209 kts 53°
2026-05-08 19:20 25.77046 -80.57535 2008 ft 209 kts 60°
2026-05-08 19:21 25.77540 -80.56035 2009 ft 208 kts 81°
2026-05-08 19:21 25.77683 -80.54444 2010 ft 207 kts 87°
2026-05-08 19:21 25.77759 -80.52843 2013 ft 208 kts 88°
2026-05-08 19:21 25.77827 -80.51247 2009 ft 207 kts 87°
2026-05-08 19:22 25.77893 -80.49660 2018 ft 205 kts 88°
2026-05-08 19:22 25.77944 -80.48080 2034 ft 203 kts 88°
2026-05-08 19:22 25.77983 -80.46583 1981 ft 187 kts 89°
2026-05-08 19:22 25.78028 -80.45149 2028 ft 184 kts 88°
2026-05-08 19:23 25.78091 -80.43737 2040 ft 183 kts 88°
2026-05-08 19:23 25.78161 -80.42355 1946 ft 177 kts 87°
2026-05-08 19:23 25.78215 -80.41032 1769 ft 170 kts 88°
2026-05-08 19:23 25.78268 -80.39728 1515 ft 166 kts 87°
2026-05-08 19:24 25.78311 -80.38638 1347 ft 155 kts 87°
2026-05-08 19:24 25.78357 -80.37509 1139 ft 138 kts 88°
2026-05-08 19:24 25.78397 -80.36503 974 ft 124 kts 89°
2026-05-08 19:24 25.78437 -80.35559 818 ft 126 kts 88°
2026-05-08 19:25 25.78480 -80.34591 699 ft 118 kts 87°
2026-05-08 19:25 25.78527 -80.33679 574 ft 121 kts 89°
2026-05-08 19:25 25.78556 -80.32735 355 ft 122 kts 88°
2026-05-08 19:25 25.78598 -80.31805 200 ft 122 kts 88°
2026-05-08 19:26 25.78636 -80.30861 38 ft 123 kts 89°
2026-05-08 19:26 25.78668 -80.30056 22 ft 97 kts 86°
2026-05-08 19:26 25.78699 -80.29470 20 ft 37 kts 87°
2026-05-08 19:26 25.78704 -80.29355 23 ft 11 kts 86°
2026-05-08 19:27 25.78718 -80.29275 23 ft 11 kts 68°
2026-05-08 19:27 25.78760 -80.29200 23 ft 11 kts 42°
2026-05-08 19:27 25.78782 -80.29178 24 ft 5 kts 45°
2026-05-08 19:27 25.78816 -80.29127 22 ft 10 kts 58°
2026-05-08 19:28 25.78822 -80.29059 23 ft 11 kts 84°
2026-05-08 19:28 25.78832 -80.28986 23 ft 8 kts 82°
2026-05-08 19:28 25.78834 -80.28976 22 ft 0 kts 75°
2026-05-08 19:29 25.78840 -80.28956 23 ft 9 kts 72°
2026-05-08 19:29 25.78857 -80.28895 23 ft 8 kts 73°
2026-05-08 19:29 25.78864 -80.28839 21 ft 7 kts 87°
2026-05-08 19:29 25.78866 -80.28787 21 ft 6 kts 87°
2026-05-08 19:30 25.78868 -80.28739 21 ft 6 kts 87°
2026-05-08 19:30 25.78871 -80.28693 23 ft 6 kts 87°
2026-05-08 19:30 25.78875 -80.28652 21 ft 5 kts 77°
2026-05-08 19:30 25.78889 -80.28619 22 ft 5 kts 56°
2026-05-08 19:31 25.78908 -80.28602 22 ft 5 kts 38°
2026-05-08 19:31 25.78931 -80.28583 21 ft 4 kts 37°
2026-05-08 19:31 25.78951 -80.28566 21 ft 4 kts 37°
2026-05-08 19:31 25.78977 -80.28545 23 ft 10 kts 36°
2026-05-08 19:32 25.79034 -80.28502 21 ft 10 kts 32°
2026-05-08 19:32 25.79094 -80.28460 21 ft 10 kts 32°
2026-05-08 19:32 25.79152 -80.28423 23 ft 9 kts 26°
2026-05-08 19:32 25.79207 -80.28413 25 ft 8 kts 343°
2026-05-08 19:33 25.79238 -80.28447 22 ft 9 kts 306°
2026-05-08 19:33 25.79273 -80.28498 22 ft 8 kts 313°
2026-05-08 19:33 25.79318 -80.28529 23 ft 7 kts 343°
2026-05-08 19:33 25.79357 -80.28516 24 ft 4 kts 41°
2026-05-08 19:34 25.79380 -80.28494 21 ft 7 kts 42°
2026-05-08 19:34 25.79413 -80.28462 22 ft 0 kts 41°